Location: Doverdale
(52.2833°N, 2.2000°W)
Time: 11:51:50
(UTC+00:00)

Cosmos 2360 - Pass Details

Date: 29 October 2020
Orbit: 847 x 855 km, 70.8° (Epoch: 24 November)

Event Time Altitude Azimuth Distance (km) Brightness Sun altitude
Rises 19:36:53 0° 216° (SW) 3,415 7.7 -26.7°
Reaches altitude 10° 19:39:21 10° 218° (SW) 2,482 6.9 -27.1°
Maximum altitude 19:45:03 74° 303° (WNW) 894 4.3 -28.0°
Enters shadow 19:46:39 48° 14° (NNE) 1,108 4.7 -28.2°
